Location: Spring Creek
(38.2870°N, 100.2160°W)
Time: 07:49:31
(UTC+00:00)

Cosmos 1954 Rocket - Pass Details

Date: 08 May 2021
Orbit: 751 x 782 km, 74.0° (Epoch: 21 June)

Event Time Altitude Azimuth Distance (km) Brightness Sun altitude
Rises 10:49:46 0° 341° (NNW) 3,242 7.4 -9.0°
Reaches altitude 10° 10:52:08 10° 341° (NNW) 2,317 6.6 -8.6°
Maximum altitude 10:57:25 88° 257° (WSW) 779 4.1 -7.7°
Drops below altitude 10° 11:02:42 10° 164° (SSE) 2,320 6.4 -6.8°
Sets 11:05:04 0° 164° (SSE) 3,246 7.1 -6.3°
